(227377) = 2005 UV238

Discovered at Kitt Peak on 2005-10-25 by Spacewatch.

Orbit

Orbit type: Main Belt

Note: WebGL enabled browser required.

epoch2024-03-31.0
epoch JD2460400.5
perihelion date2022-10-16.48290
perihelion JD2459868.98291
argument of perihelion (°)2.31842
ascending node (°)68.42944
inclination (°)15.12539
eccentricity0.0667453
perihelion distance (AU)2.4262780
Tisserand w.r.t. Jupiter3.4
ΔV w.r.t. Earth (km/sec)10.9
semimajor axis (AU)2.5998027
mean anomaly (°)124.97143
mean daily motion (°/day)0.23512210
aphelion distance (AU)2.773
period (years)4.19
P-vector [x]0.33102926
P-vector [y]0.86150198
P-vector [z]0.38501166
Q-vector [x]-0.91188636
Q-vector [y]0.18713396
Q-vector [z]0.36530009
absolute magnitude16.43
phase slope0.15
uncertainty0
referenceE2024-GI3
observations used312
oppositions15
arc length (days)8178
first opposition used2001
last opposition used2024
residual rms (arc-secs)0.69
perturbers coarse indicatorM-v
perturbers precise indicator003Ek
first observation date used2001-11-21.0
last observation date used2024-04-12.0
computer nameMPCLINUX
JD of orbit computation2456639.553786
perihelion JD uncertainty (days)3.8188E-04
argument of perihelion uncertainty (°)9.4377E-05
ascending node uncertainty (°)2.7046E-05
inclination uncertainty (°)1.0010E-05
eccentricity uncertainty 1.2169E-07
perihelion distance uncertainty (AU)3.2936E-07
Minimum Orbit Intersection Distances (in AU)
for orbit epoch: 2460400.5, reference: E2024-GI3
Mercury2.11841
Venus1.70531
Earth1.44098
Mars0.8768
Jupiter2.51122
Saturn6.62799
Uranus15.8967
Neptune27.3828

Observations

307 total observations over interval: 2001 11 21.39087 – 2024 03 18.600691
These data are available for download (format description).

Date (UT) J2000 RA J2000 Dec Magn Location Ref
2001 11 21.39087 05 45 31.66 +26 28 07.7 20.0   704 – Lincoln Laboratory ETS, New Mexico MPS 156083
2001 11 21.40555 05 45 30.96 +26 28 14.1 20.1   704 – Lincoln Laboratory ETS, New Mexico MPS 156083
2001 11 21.42024 05 45 30.20 +26 28 20.6 20.0   704 – Lincoln Laboratory ETS, New Mexico MPS 156083
2001 11 21.43493 05 45 29.50 +26 28 26.4 20.0   704 – Lincoln Laboratory ETS, New Mexico MPS 156083
2001 12 22.22262 05 11 46.72 +29 44 39.2 19.1   704 – Lincoln Laboratory ETS, New Mexico MPS 156083
2001 12 22.23767 05 11 45.70 +29 44 42.9 19.7   704 – Lincoln Laboratory ETS, New Mexico MPS 156083
2001 12 22.25271 05 11 44.58 +29 44 47.9 19.6   704 – Lincoln Laboratory ETS, New Mexico MPS 156083
2001 12 22.26775 05 11 43.52 +29 44 53.2 19.8   704 – Lincoln Laboratory ETS, New Mexico MPS 156083
2001 12 22.28281 05 11 42.48 +29 44 56.3 19.5   704 – Lincoln Laboratory ETS, New Mexico MPS 156083
2003 04 01.330040 13 56 22.018 +07 27 25.14 20.43 V 645 – Apache Point-Sloan Digital Sky Survey MPS 157812
2003 04 01.333512 13 56 21.835 +07 27 25.80 21.34   645 – Apache Point-Sloan Digital Sky Survey MPS 157812
2005 10 25.37317 04 09 47.80 +13 16 47.9 19.9 V 691 – Steward Observatory, Kitt Peak-Spacewatch MPS 149856
2005 10 25.39050 04 09 47.03 +13 16 50.5 20.0 V 691 – Steward Observatory, Kitt Peak-Spacewatch MPS 149856
2005 10 25.40784 04 09 46.27 +13 16 53.3 19.9 V 691 – Steward Observatory, Kitt Peak-Spacewatch MPS 149856
2005 10 25.40801 04 09 46.33 +13 16 53.3 19.4 V 703 – Catalina Sky Survey MPS 150943
2005 10 25.41994 04 09 45.72 +13 16 56.6 19.6 V 703 – Catalina Sky Survey MPS 150943
2005 10 25.43200 04 09 45.21 +13 16 56.4 19.2 V 703 – Catalina Sky Survey MPS 150943
2005 10 25.44416 04 09 44.64 +13 16 59.6 20.0 V 703 – Catalina Sky Survey MPS 150943
2005 10 29.32624 04 06 50.96 +13 27 24.1 20.0 V 691 – Steward Observatory, Kitt Peak-Spacewatch MPS 149856
2005 10 29.34358 04 06 50.11 +13 27 26.9 19.9 V 691 – Steward Observatory, Kitt Peak-Spacewatch MPS 149856
2005 10 29.36092 04 06 49.24 +13 27 29.6 19.9 V 691 – Steward Observatory, Kitt Peak-Spacewatch MPS 149856
2005 11 06.21617 03 59 46.35 +13 49 56.3 19.8 V 691 – Steward Observatory, Kitt Peak-Spacewatch MPS 150943
2005 11 06.23349 03 59 45.29 +13 49 59.3 19.9 V 691 – Steward Observatory, Kitt Peak-Spacewatch MPS 150943
2005 11 06.25423 03 59 44.03 +13 50 03.2 19.7 V 691 – Steward Observatory, Kitt Peak-Spacewatch MPS 150943
2005 11 06.33459 03 59 39.12 +13 50 17.9 19.8   704 – Lincoln Laboratory ETS, New Mexico MPS 150943
2005 11 06.34688 03 59 38.29 +13 50 20.4 19.7   704 – Lincoln Laboratory ETS, New Mexico MPS 150943
2005 11 06.35948 03 59 37.58 +13 50 21.9 19.5   704 – Lincoln Laboratory ETS, New Mexico MPS 150943
2005 11 10.29648 03 55 36.41 +14 02 25.3 19.8 V 691 – Steward Observatory, Kitt Peak-Spacewatch MPS 150943
2005 11 10.31388 03 55 35.28 +14 02 28.5 19.6 V 691 – Steward Observatory, Kitt Peak-Spacewatch MPS 150943
2005 11 10.33118 03 55 34.13 +14 02 31.9 19.6 V 691 – Steward Observatory, Kitt Peak-Spacewatch MPS 150943
2005 11 10.36772 03 55 31.80 +14 02 39.8 19.4 V 703 – Catalina Sky Survey MPS 150943
2005 11 10.37463 03 55 31.26 +14 02 39.8 19.7 V 703 – Catalina Sky Survey MPS 150943
2005 11 10.38155 03 55 30.82 +14 02 41.5 19.5 V 703 – Catalina Sky Survey MPS 150943
2005 11 10.38841 03 55 30.46 +14 02 43.0 19.3 V 703 – Catalina Sky Survey MPS 150943
2005 11 26.34433 03 37 46.48 +14 57 27.8 19.2 V 703 – Catalina Sky Survey MPS 152283
2005 11 26.35087 03 37 46.02 +14 57 27.8 19.1 V 703 – Catalina Sky Survey MPS 152283
2005 11 26.35738 03 37 45.58 +14 57 29.8 19.5 V 703 – Catalina Sky Survey MPS 152283
2005 11 26.36390 03 37 45.08 +14 57 32.3 18.6 V 703 – Catalina Sky Survey MPS 152283
2005 11 29.17574 03 34 40.52 +15 08 12.4 19.2 R 699 – Lowell Observatory-LONEOS MPS 152283
2005 11 29.19855 03 34 38.94 +15 08 18.1   699 – Lowell Observatory-LONEOS MPS 152283
2005 11 29.22135 03 34 37.41 +15 08 24.0   699 – Lowell Observatory-LONEOS MPS 152283
2005 11 29.24416 03 34 35.88 +15 08 29.3   699 – Lowell Observatory-LONEOS MPS 152283
2005 11 30.25414 03 33 30.61 +15 12 25.4 19.7   704 – Lincoln Laboratory ETS, New Mexico MPS 152283
2005 11 30.26720 03 33 29.81 +15 12 29.1 20.1   704 – Lincoln Laboratory ETS, New Mexico MPS 152283
2005 11 30.29399 03 33 27.97 +15 12 34.6 20.1   704 – Lincoln Laboratory ETS, New Mexico MPS 152283
2005 11 30.30665 03 33 27.16 +15 12 36.9 20.0   704 – Lincoln Laboratory ETS, New Mexico MPS 152283
2005 12 01.26458 03 32 26.26 +15 16 23.9 19.0 V G96 – Mt. Lemmon Survey MPS 152283
2005 12 01.27258 03 32 25.76 +15 16 25.6 19.3 V G96 – Mt. Lemmon Survey MPS 152283
2005 12 01.28865 03 32 24.68 +15 16 29.5 19.3 V G96 – Mt. Lemmon Survey MPS 152283
2005 12 21.14065 03 15 46.54 +16 44 56.4 19.4 R 699 – Lowell Observatory-LONEOS MPS 156083
2005 12 21.15710 03 15 46.02 +16 45 02.0   699 – Lowell Observatory-LONEOS MPS 156083
2005 12 21.17355 03 15 45.43 +16 45 08.1   699 – Lowell Observatory-LONEOS MPS 156083
2005 12 21.19001 03 15 44.78 +16 45 12.3   699 – Lowell Observatory-LONEOS MPS 156083
2006 01 04.25618 03 10 56.38 +18 00 40.3 20.0 V G96 – Mt. Lemmon Survey MPS 157812
2006 01 04.26293 03 10 56.35 +18 00 42.6 20.3 V G96 – Mt. Lemmon Survey MPS 157812
2006 01 04.26969 03 10 56.28 +18 00 44.5 19.9 V G96 – Mt. Lemmon Survey MPS 157812
2006 01 04.27645 03 10 56.20 +18 00 47.2 20.3 V G96 – Mt. Lemmon Survey MPS 157812
2007 03 16.29273 12 48 26.46 +19 07 26.5 20.1 V 703 – Catalina Sky Survey MPS 204621
2007 03 16.29918 12 48 25.92 +19 07 27.7 20.5 V 703 – Catalina Sky Survey MPS 204621
2007 03 16.30564 12 48 25.66 +19 07 29.4 19.9 V 703 – Catalina Sky Survey MPS 204621
2007 03 16.31209 12 48 25.38 +19 07 32.8 19.7 V 703 – Catalina Sky Survey MPS 204621
2007 04 14.31262 12 21 19.98 +20 03 55.0 20.4 V 703 – Catalina Sky Survey MPS 206939
2007 04 14.31963 12 21 19.58 +20 03 54.3 21.2 V 703 – Catalina Sky Survey MPS 206939
2007 04 14.32663 12 21 19.29 +20 03 53.5 20.6 V 703 – Catalina Sky Survey MPS 206939
2007 04 14.33362 12 21 18.97 +20 03 49.7 20.0 V 703 – Catalina Sky Survey MPS 206939
2009 10 02.35074 02 43 10.48 -01 21 15.3 19.9 V G96 – Mt. Lemmon Survey MPS 297768
2009 10 02.35715 02 43 10.23 -01 21 16.3 20.1 V G96 – Mt. Lemmon Survey MPS 297768
2009 10 02.36324 02 43 10.02 -01 21 17.2 20.2 V G96 – Mt. Lemmon Survey MPS 297768
2009 10 02.36947 02 43 09.76 -01 21 17.7 20.0 V G96 – Mt. Lemmon Survey MPS 297768
2009 11 18.21132 01 59 36.92 -00 52 36.1 21.2 V 703 – Catalina Sky Survey MPS 303315
2009 11 18.21858 01 59 36.45 -00 52 33.9 20.0 V 703 – Catalina Sky Survey MPS 303315
2009 11 18.22590 01 59 36.06 -00 52 32.3 20.2 V 703 – Catalina Sky Survey MPS 303315
2009 11 18.23308 01 59 35.70 -00 52 30.4 19.7 V 703 – Catalina Sky Survey MPS 303315
2011 03 14.36999 11 11 34.494 +31 05 44.40 20.1 i F51 – Pan-STARRS 1, Haleakala MPS 382023
2011 03 14.38318 11 11 33.695 +31 05 45.91 20.0 i F51 – Pan-STARRS 1, Haleakala MPS 382023
2011 03 14.41021 11 11 32.068 +31 05 49.05 20.1 r F51 – Pan-STARRS 1, Haleakala MPS 382023
2013 09 08.28273 01 23 08.92 -14 54 22.5 20.4 G G45 – Space Surveillance Telescope, Atom Site MPS 1607937
2013 09 08.30216 01 23 08.29 -14 54 30.5 20.2 G G45 – Space Surveillance Telescope, Atom Site MPS 1607937
2013 09 08.31952 01 23 07.71 -14 54 36.3 19.5 G G45 – Space Surveillance Telescope, Atom Site MPS 1607937
2013 09 08.34088 01 23 06.99 -14 54 44.0 19.9 G G45 – Space Surveillance Telescope, Atom Site MPS 1607937
2013 09 30.36561 01 05 55.13 -16 39 57.6 19.7 V 703 – Catalina Sky Survey MPS 479750
2013 09 30.37066 01 05 54.81 -16 39 59.3 19.5 V 703 – Catalina Sky Survey MPS 479750
2013 09 30.37569 01 05 54.55 -16 40 00.1 19.3 V 703 – Catalina Sky Survey MPS 479750
2013 10 28.18926 00 40 04.61 -16 26 42.7 20.2 G G45 – Space Surveillance Telescope, Atom Site MPS 1607937
2013 10 28.20757 00 40 03.77 -16 26 38.2 19.9 G G45 – Space Surveillance Telescope, Atom Site MPS 1607937
2013 10 28.23751 00 40 02.36 -16 26 30.6 19.8 G G45 – Space Surveillance Telescope, Atom Site MPS 1607937
2013 10 28.25887 00 40 01.31 -16 26 24.9 20.4 G G45 – Space Surveillance Telescope, Atom Site MPS 1607937
2013 11 23.23697 00 29 00.445 -13 20 51.95 20.5 r F51 – Pan-STARRS 1, Haleakala MPS 489644
